Weather History for KAIO - December, 2013

Change the Weather History Date:

Tuesday, December 10, 2013

  Actual Average Record
Temperature  
Mean Temperature 14 °F -  
Max Temperature 23 °F 37 °F 51 °F (2006)
Min Temperature 6 °F 19 °F -5 °F (2011)
Degree Days  
Heating Degree Days 50    
Moisture  
Dew Point 9 °F    
Average Humidity 68    
Maximum Humidity 93    
Minimum Humidity 58    
Precipitation  
Precipitation 0.00 in - - ()
Sea Level Pressure  
Sea Level Pressure 30.13 in    
Wind  
Wind Speed 12 mph (SW)    
Max Wind Speed 20 mph    
Max Gust Speed 23 mph    
Visibility 10 miles    
Events Snow    
Averages and records for this station are not official NWS values.
T = Trace of Precipitation, MM = Missing Value Source: NWS Daily Summary

Daily Weather History Graph

Daily Weather History Graph

Search for Another Location

Airport or City:

Trip Planner

Search our weather history database for the weather conditions in past years. The results will help you decide how hot, cold, wet, or windy it might be!

Date:

Astronomy

Dec. 10, 2013 Rise Set
Actual Time 7:35 AM CST 4:50 PM CST
Civil Twilight 7:04 AM CST 5:21 PM CST
Nautical Twilight 6:29 AM CST 5:56 PM CST
Astronomical Twilight 5:56 AM CST 6:30 PM CST
Moon 12:55 PM CST (12/10) 12:50 AM CST (12/10)
Length of Visible Light 10h 17m
Length of Day
9h 14m
Waxing Gibbous, 62% of the Moon is Illuminated
Dec 10
Waxing Gibbous
Dec 17
Full
Dec 25
Last Quarter
Jan 1
New
Jan 7
First Quarter

Hourly Weather History & Observations

Time (CST) Temp. Windchill Dew Point Humidity Pressure Visibility Wind Dir Wind Speed Gust Speed Precip Events Conditions
12:15 AM 6.8 °F -11.8 °F -2.2 °F 67% 30.05 in 10.0 mi SSW 17.3 mph - N/A   Overcast
12:35 AM 6.8 °F -10.7 °F -2.2 °F 67% 30.06 in 10.0 mi SW 15.0 mph - N/A   Mostly Cloudy
12:55 AM 6.8 °F -11.3 °F -0.4 °F 72% 30.04 in 10.0 mi SW 16.1 mph - N/A   Mostly Cloudy
1:15 AM 10.4 °F -7.7 °F 1.4 °F 67% 30.03 in 10.0 mi SW 18.4 mph - N/A   Overcast
1:35 AM 10.4 °F -8.2 °F 1.4 °F 67% 30.02 in 10.0 mi SW 19.6 mph - N/A   Overcast
1:55 AM 10.4 °F -7.7 °F 1.4 °F 67% 30.03 in 10.0 mi SW 18.4 mph - N/A   Mostly Cloudy
2:15 AM 10.4 °F -6.6 °F 1.4 °F 67% 30.03 in 10.0 mi SW 16.1 mph - N/A   Partly Cloudy
2:35 AM 8.6 °F -8.3 °F -0.4 °F 67% 30.03 in 10.0 mi SSW 15.0 mph - N/A   Clear
2:55 AM 6.8 °F -9.3 °F -0.4 °F 72% 30.03 in 10.0 mi SSW 12.7 mph - N/A   Clear
3:15 AM 6.8 °F -9.3 °F -0.4 °F 72% 30.04 in 10.0 mi SSW 12.7 mph - N/A   Clear
3:35 AM 8.6 °F -5.5 °F 1.4 °F 73% 30.03 in 10.0 mi South 10.4 mph - N/A   Mostly Cloudy
4:35 AM 15.8 °F 2.1 °F 8.6 °F 73% 30.03 in 10.0 mi SW 12.7 mph 19.6 mph N/A   Overcast
4:55 AM 15.8 °F 1.4 °F 8.6 °F 73% 30.04 in 10.0 mi WSW 13.8 mph - N/A   Overcast
5:15 AM 15.8 °F 2.1 °F 8.6 °F 73% 30.05 in 10.0 mi WSW 12.7 mph - N/A   Mostly Cloudy
5:35 AM 17.6 °F 5.7 °F 8.6 °F 68% 30.06 in 10.0 mi WSW 10.4 mph - N/A   Mostly Cloudy
5:55 AM 21.2 °F 7.8 °F 12.2 °F 68% 30.08 in 10.0 mi WNW 15.0 mph - N/A Snow Light Snow
6:15 AM 21.2 °F 6.0 °F 12.2 °F 68% 30.09 in 10.0 mi WNW 19.6 mph - N/A Snow Light Snow
6:35 AM 19.4 °F 6.0 °F 10.4 °F 68% 30.10 in 10.0 mi WNW 13.8 mph - N/A   Scattered Clouds
6:55 AM 17.6 °F 4.3 °F 8.6 °F 68% 30.11 in 10.0 mi WNW 12.7 mph - N/A   Clear
7:15 AM 17.6 °F 2.2 °F 5.0 °F 58% 30.12 in 10.0 mi WNW 17.3 mph - N/A   Clear
7:35 AM 15.8 °F 0.3 °F 3.2 °F 58% 30.13 in 10.0 mi NW 16.1 mph 23.0 mph N/A   Clear
7:55 AM 14.0 °F 0.5 °F 3.2 °F 62% 30.14 in 10.0 mi NW 11.5 mph - N/A   Clear
8:15 AM 14.0 °F 2.0 °F 3.2 °F 62% 30.15 in 10.0 mi WNW 9.2 mph - N/A   Clear
8:35 AM 14.0 °F 2.0 °F 3.2 °F 62% 30.17 in 10.0 mi West 9.2 mph - N/A   Clear
8:55 AM 14.0 °F 2.0 °F 3.2 °F 62% 30.19 in 10.0 mi West 9.2 mph - N/A   Clear
9:15 AM 15.8 °F 0.9 °F 5.0 °F 62% 30.19 in 10.0 mi WNW 15.0 mph - N/A   Clear
9:35 AM 15.8 °F 1.4 °F 5.0 °F 62% 30.21 in 10.0 mi WNW 13.8 mph - N/A   Clear
9:55 AM 15.8 °F 2.7 °F 5.0 °F 62% 30.22 in 10.0 mi WNW 11.5 mph 19.6 mph N/A   Clear
10:15 AM 15.8 °F 2.7 °F 5.0 °F 62% 30.22 in 10.0 mi NW 11.5 mph - N/A   Clear
10:35 AM 17.6 °F 5.7 °F 5.0 °F 58% 30.23 in 10.0 mi WNW 10.4 mph - N/A   Clear
10:55 AM 17.6 °F 7.3 °F 5.0 °F 58% 30.22 in 10.0 mi WNW 8.1 mph - N/A   Clear
11:15 AM 17.6 °F 7.3 °F 6.8 °F 63% 30.22 in 10.0 mi WNW 8.1 mph - N/A   Clear
11:35 AM 19.4 °F 9.5 °F 6.8 °F 58% 30.21 in 10.0 mi WNW 8.1 mph - N/A   Clear
11:55 AM 19.4 °F 8.6 °F 6.8 °F 58% 30.21 in 10.0 mi West 9.2 mph - N/A   Clear
12:15 PM 19.4 °F 9.5 °F 6.8 °F 58% 30.20 in 10.0 mi West 8.1 mph 16.1 mph N/A   Clear
12:35 PM 19.4 °F 7.2 °F 6.8 °F 58% 30.19 in 10.0 mi SW 11.5 mph - N/A   Clear
12:55 PM 19.4 °F 7.9 °F 8.6 °F 63% 30.18 in 10.0 mi SW 10.4 mph - N/A   Clear
1:15 PM 19.4 °F 7.9 °F 8.6 °F 63% 30.17 in 10.0 mi WSW 10.4 mph - N/A   Clear
1:35 PM 21.2 °F 9.5 °F 10.4 °F 63% 30.16 in 10.0 mi SW 11.5 mph - N/A   Clear
1:55 PM 21.2 °F 10.1 °F 10.4 °F 63% 30.16 in 10.0 mi SSW 10.4 mph - N/A   Clear
2:15 PM 21.2 °F 12.6 °F 8.6 °F 58% 30.13 in 10.0 mi SSW 6.9 mph - N/A   Clear
2:35 PM 21.2 °F 10.9 °F 10.4 °F 63% 30.13 in 10.0 mi South 9.2 mph - N/A   Clear
2:55 PM 21.2 °F 10.1 °F 10.4 °F 63% 30.14 in 10.0 mi SSW 10.4 mph - N/A   Clear
3:15 PM 21.2 °F 10.9 °F 10.4 °F 63% 30.15 in 10.0 mi SSW 9.2 mph - N/A   Clear
3:35 PM 21.2 °F 13.6 °F 10.4 °F 63% 30.14 in 10.0 mi SSW 5.8 mph - N/A   Clear
3:55 PM 21.2 °F 14.9 °F 10.4 °F 63% 30.14 in 10.0 mi SSE 4.6 mph - N/A   Clear
4:15 PM 21.2 °F 14.9 °F 12.2 °F 68% 30.14 in 10.0 mi South 4.6 mph - N/A   Clear
4:35 PM 21.2 °F - 12.2 °F 68% 30.15 in 10.0 mi Calm Calm - N/A   Clear
4:55 PM 21.2 °F 16.4 °F 12.2 °F 68% 30.14 in 10.0 mi South 3.5 mph - N/A   Scattered Clouds
5:15 PM 21.2 °F 13.6 °F 12.2 °F 68% 30.14 in 10.0 mi SSE 5.8 mph - N/A   Mostly Cloudy
5:35 PM 19.4 °F 14.3 °F 12.2 °F 74% 30.14 in 10.0 mi SSE 3.5 mph - N/A   Mostly Cloudy
5:55 PM 19.4 °F - 12.2 °F 74% 30.15 in 10.0 mi Calm Calm - N/A   Overcast
6:15 PM 21.2 °F 16.4 °F 12.2 °F 68% 30.16 in 10.0 mi South 3.5 mph - N/A   Overcast
6:35 PM 21.2 °F 13.6 °F 12.2 °F 68% 30.15 in 10.0 mi SSE 5.8 mph - N/A Snow Light Snow
6:55 PM 21.2 °F 14.9 °F 12.2 °F 68% 30.15 in 10.0 mi South 4.6 mph - N/A Snow Light Snow
7:15 PM 21.2 °F 13.6 °F 14.0 °F 74% 30.14 in 10.0 mi South 5.8 mph - N/A   Overcast
7:35 PM 21.2 °F 12.6 °F 14.0 °F 74% 30.15 in 10.0 mi South 6.9 mph - N/A   Overcast
7:55 PM 23.0 °F 13.9 °F 14.0 °F 68% 30.14 in 10.0 mi South 8.1 mph - N/A   Overcast
8:15 PM 23.0 °F 13.1 °F 15.8 °F 74% 30.14 in 10.0 mi South 9.2 mph - N/A   Overcast
8:35 PM 23.0 °F 13.1 °F 14.0 °F 68% 30.14 in 10.0 mi SSW 9.2 mph - N/A   Overcast
8:55 PM 23.0 °F 13.9 °F 14.0 °F 68% 30.14 in 10.0 mi South 8.1 mph - N/A   Overcast
9:15 PM 21.2 °F 11.7 °F 15.8 °F 80% 30.15 in 10.0 mi South 8.1 mph - N/A   Overcast
9:35 PM 23.0 °F 14.7 °F 15.8 °F 74% 30.14 in 10.0 mi SSW 6.9 mph - N/A   Overcast
9:55 PM 23.0 °F 14.7 °F 15.8 °F 74% 30.15 in 10.0 mi SW 6.9 mph - N/A   Overcast
10:15 PM 23.0 °F 15.8 °F 15.8 °F 74% 30.17 in 10.0 mi WSW 5.8 mph - N/A   Overcast
10:35 PM 23.0 °F 17.0 °F 15.8 °F 74% 30.18 in 10.0 mi West 4.6 mph - N/A   Mostly Cloudy
10:55 PM 23.0 °F 13.9 °F 15.8 °F 74% 30.19 in 10.0 mi WSW 8.1 mph - N/A   Mostly Cloudy
11:15 PM 23.0 °F 13.9 °F 19.4 °F 86% 30.19 in 1.2 mi SW 8.1 mph - N/A Snow Light Snow
11:35 PM 23.0 °F 13.9 °F 19.4 °F 86% 30.20 in 1.5 mi SW 8.1 mph - N/A Snow Light Snow
11:55 PM 23.0 °F 13.1 °F 21.2 °F 93% 30.20 in 2.5 mi WSW 9.2 mph - N/A Snow Light Snow